Voltar ao catálogo

STARLINK-36735

AtivoComunicaçõesVLEO
NORAD 68976·PAYLOAD·🇺🇸 United States

Lançado May 1, 2026 de Cape Canaveral Space Force Station

Loading…

Próximas Passagens (próximas 24 horas)

TLE

AtualizadoSource: CelesTrak SupGP

Época: Sep 15, 2026, 03:12 UTC

1 68976C 26099AB  26258.13381944 -.00001677  00000+0 -49537-4 0  2580
2 68976  53.1562 100.5817 0001247  95.9886 297.7914 15.34392591    13

Acompanhe STARLINK-36735 em tempo real com AllMySat

Download on the App Store